Dobrodošli na spletni strani vremenske postaje Senovo. Vse informacije so informativnega značaja, saj vremenska postaja ni del državne mreže meteoroloških postaj. AKTUALNIH OBVESTIL NI.


Posebna pozornost v zvezi z vremenskimi dogajanji ni potrebna.    Posebna pozornost v zvezi z vremenskimi dogajanji ni potrebna.

Pogled proti Armezu več informacij Pogled proti Armezu


Lisca več informacij Lisca


Radar strel več informacij blitzortung!


Radar padavin več informacij rain snow radar


Obiščite še:

Template documentation
and downloads

And another site



Weather Underground, zgodovina - Tekstovno

Dnevni povzetek za December 9, 2017 Enote:  Metrično    Angleško   Obe
« Predhodni Dan
Naslednji Dan »
Dnevni Tedenski Mesečni Letni Po meri
  Višja: Nižja: Povprečje:
Temperatura: -17.8 °C -21.2 °C -18.1 °C
Točka rosišča: -17.8 °C -21.9 °C -18.7 °C
Vlažnost: Humidity % 0 % 90 %
Hitrost vetra: 0 km/h 0 km/h 2.7 km/h
Sunki vetra: 0 km/h - -
Veter:- - South
Zračni tlak: 0 hPa 0 hPa -
Padavine: 264.16 mm    
Historical Graphs
 
 
Tabelarni podarki za December 9, 2017
Čas Temperatura Točka rosišča Zračni tlak Veter Hitrost vetra Sunki vetra Vlažnost Intenziteta padavin (urna)
-17.8 °C -17.8 °C 0 hPa Calm     Humidity % 0 mm
00:02 -16.7 °C -17.7 °C 34130.9 hPa ESE 7.7 km/h 18.7 km/h 88 % 96.52 mm
00:07 -16.7 °C -17.7 °C 34130.9 hPa ESE 10.3 km/h 28.5 km/h 88 % 104.14 mm
00:22 -16.7 °C -17.6 °C 34097 hPa ESE 12.2 km/h 26.7 km/h 89 % 109.22 mm
00:27 -16.8 °C -17.7 °C 34097 hPa ESE 14.5 km/h 27.7 km/h 89 % 109.22 mm
00:37 -16.9 °C -17.8 °C 34097 hPa SE 9.8 km/h 22.5 km/h 89 % 96.52 mm
00:47 -17.1 °C -17.9 °C 34097 hPa SE 9.3 km/h 26.2 km/h 89 % 83.82 mm
00:52 -17.1 °C -18 °C 34097 hPa SSE 8.9 km/h 26.2 km/h 89 % 83.82 mm
00:57 -17.2 °C -18.1 °C 34130.9 hPa SE 8.9 km/h 16.9 km/h 89 % 76.2 mm
01:02 -17.2 °C -18.1 °C 34130.9 hPa SSE 7.2 km/h 19.2 km/h 89 % 76.2 mm
01:07 -17.2 °C -18.1 °C 34130.9 hPa South 5 km/h 19.2 km/h 89 % 63.5 mm
01:22 -17.3 °C -18.2 °C 34130.9 hPa East 8.9 km/h 19.6 km/h 89 % 33.02 mm
01:27 -17.3 °C -18.2 °C 34130.9 hPa East 7.2 km/h 14.5 km/h 89 % 25.4 mm
01:32 -17.3 °C -18.2 °C 34130.9 hPa East 6.8 km/h 12.7 km/h 89 % 20.32 mm
01:37 -17.3 °C -18.1 °C 34130.9 hPa East 7.6 km/h 14 km/h 90 % 12.7 mm
01:43 -17.3 °C -18.1 °C 34130.9 hPa East 8 km/h 14 km/h 90 % 7.62 mm
01:48 -17.3 °C -18.1 °C 34130.9 hPa East 6.9 km/h 12.7 km/h 90 % 7.62 mm
01:53 -17.3 °C -18.1 °C 34130.9 hPa East 7.7 km/h 15 km/h 90 % 7.62 mm
01:58 -17.3 °C -18.1 °C 34130.9 hPa East 7.7 km/h 27.2 km/h 90 % 7.62 mm
02:03 -17.3 °C -18.1 °C 34130.9 hPa East 9 km/h 27.2 km/h 90 % 12.7 mm
02:08 -17.3 °C -18.1 °C 34130.9 hPa East 11.6 km/h 24.8 km/h 90 % 25.4 mm
02:13 -17.3 °C -18.1 °C 34130.9 hPa East 12.7 km/h 24.8 km/h 90 % 25.4 mm
02:18 -17.3 °C -18.1 °C 34130.9 hPa East 11.4 km/h 22.5 km/h 90 % 33.02 mm
02:23 -17.3 °C -18.1 °C 34130.9 hPa East 7.7 km/h 14.5 km/h 90 % 38.1 mm
02:28 -17.3 °C -18 °C 34130.9 hPa East 6.3 km/h 11.1 km/h 91 % 45.72 mm
02:29 -17.3 °C -18 °C 34130.9 hPa East 6 km/h 11.1 km/h 91 % 45.72 mm
02:34 -17.2 °C -18 °C 34130.9 hPa East 5 km/h 11.1 km/h 90 % 45.72 mm
02:39 -17.2 °C -17.9 °C 34130.9 hPa East 8.5 km/h 27.2 km/h 91 % 58.42 mm
02:44 -17.2 °C -17.9 °C 34097 hPa East 14 km/h 27.2 km/h 91 % 63.5 mm
02:49 -17.2 °C -17.9 °C 34097 hPa East 11.9 km/h 26.2 km/h 91 % 63.5 mm
02:54 -17.2 °C -17.9 °C 34097 hPa East 7.7 km/h 16.3 km/h 91 % 63.5 mm
02:59 -17.2 °C -17.9 °C 34130.9 hPa East 7.6 km/h 33.6 km/h 91 % 58.42 mm
03:04 -17.2 °C -17.9 °C 34130.9 hPa East 10.1 km/h 33.6 km/h 91 % 58.42 mm
03:09 -17.2 °C -17.9 °C 34130.9 hPa East 11.1 km/h 27.7 km/h 91 % 50.8 mm
03:14 -17.2 °C -17.9 °C 34130.9 hPa East 11.1 km/h 27.7 km/h 91 % 50.8 mm
03:15 -17.2 °C -17.9 °C 34130.9 hPa East 10.9 km/h 20.3 km/h 91 % 50.8 mm
03:21 -17.2 °C -17.9 °C 34130.9 hPa East 9.8 km/h 20.3 km/h 91 % 45.72 mm
03:26 -17.2 °C -17.9 °C 34097 hPa East 9.8 km/h 22.5 km/h 91 % 50.8 mm
03:30 -17.2 °C -17.9 °C 34097 hPa East 10.3 km/h 22.5 km/h 91 % 45.72 mm
03:35 -17.2 °C -17.9 °C 34097 hPa East 8.9 km/h 17.4 km/h 91 % 45.72 mm
03:41 -17.2 °C -17.9 °C 34130.9 hPa East 7.7 km/h 15.6 km/h 91 % 38.1 mm
03:46 -17.2 °C -17.9 °C 34130.9 hPa East 8 km/h 15.6 km/h 91 % 33.02 mm
03:51 -17.2 °C -17.9 °C 34130.9 hPa East 7.7 km/h 15 km/h 91 % 33.02 mm
03:56 -17.3 °C -17.9 °C 34097 hPa East 8.2 km/h 14 km/h 92 % 25.4 mm
04:01 -17.3 °C -17.9 °C 34097 hPa East 8.2 km/h 14 km/h 92 % 25.4 mm
04:06 -17.3 °C -17.9 °C 34097 hPa East 6.4 km/h 12.7 km/h 92 % 25.4 mm
04:11 -17.3 °C -17.9 °C 34097 hPa East 5 km/h 12.7 km/h 92 % 25.4 mm
04:16 -17.3 °C -17.9 °C 34097 hPa East 1.8 km/h 9.3 km/h 92 % 20.32 mm
04:17 -17.3 °C -17.9 °C 34097 hPa East 1.3 km/h 9.3 km/h 92 % 20.32 mm
04:20 -17.4 °C -18 °C 34097 hPa Calm     92 % 20.32 mm
04:25 -17.4 °C -18 °C 34097 hPa East 0.8 km/h 7.6 km/h 92 % 20.32 mm
04:26 -17.4 °C -18 °C 34063.2 hPa East 1 km/h 7.6 km/h 92 % 20.32 mm
04:28 -17.4 °C -18 °C 34063.2 hPa East 1 km/h 7.6 km/h 92 % 20.32 mm
04:30 -17.4 °C -18 °C 34063.2 hPa East 1 km/h 7.6 km/h 92 % 20.32 mm
04:35 -17.4 °C -18 °C 34063.2 hPa Calm     92 % 12.7 mm
04:40 -17.4 °C -18 °C 34063.2 hPa Calm     92 % 12.7 mm
04:45 -17.4 °C -18 °C 34097 hPa Calm     92 % 12.7 mm
04:50 -17.4 °C -18.1 °C 34097 hPa Calm     92 % 7.62 mm
04:55 -17.4 °C -18.1 °C 34097 hPa Calm     92 % 20.32 mm
05:05 -17.4 °C -18.1 °C 34097 hPa Calm     92 % 12.7 mm
05:10 -17.4 °C -18.1 °C 34097 hPa Calm     92 % 12.7 mm
05:15 -17.4 °C -18.1 °C 34097 hPa Calm     92 % 12.7 mm
05:20 -17.4 °C -18.1 °C 34097 hPa Calm     92 % 12.7 mm
05:30 -17.4 °C -18 °C 34097 hPa Calm     93 % 12.7 mm
05:35 -17.4 °C -18 °C 34097 hPa Calm     93 % 12.7 mm
05:40 -17.4 °C -18 °C 34130.9 hPa Calm     93 % 12.7 mm
05:56 -17.5 °C -18.1 °C 34130.9 hPa Calm     93 % 7.62 mm
06:01 -17.5 °C -18.1 °C 34130.9 hPa Calm     93 % 7.62 mm
06:06 -17.5 °C -18.1 °C 34130.9 hPa Calm     93 % 7.62 mm
06:11 -17.5 °C -18.1 °C 34097 hPa Calm     93 % 7.62 mm
06:16 -17.5 °C -18.1 °C 34097 hPa Calm     93 % 7.62 mm
06:21 -17.5 °C -18.1 °C 34097 hPa Calm     93 % 7.62 mm
06:26 -17.5 °C -18.1 °C 34097 hPa Calm     93 % 7.62 mm
06:31 -17.5 °C -18.1 °C 34097 hPa Calm     93 % 7.62 mm
06:36 -17.5 °C -18.1 °C 34097 hPa Calm     93 % 7.62 mm
06:41 -17.5 °C -18.1 °C 34130.9 hPa Calm     93 % 7.62 mm
06:46 -17.5 °C -18.1 °C 34130.9 hPa Calm     93 % 7.62 mm
06:56 -17.5 °C -18.1 °C 34130.9 hPa Calm     93 % 7.62 mm
07:06 -17.5 °C -17.9 °C 34130.9 hPa Calm     94 % 7.62 mm
07:11 -17.5 °C -17.9 °C 34130.9 hPa Calm     94 % 7.62 mm
07:16 -17.5 °C -17.9 °C 34130.9 hPa Calm     94 % 0 mm
07:21 -17.5 °C -17.9 °C 34130.9 hPa Calm     94 % 0 mm
07:26 -17.5 °C -17.9 °C 34130.9 hPa Calm     94 % 0 mm
07:36 -17.5 °C -17.9 °C 34130.9 hPa Calm     94 % 7.62 mm
07:41 -17.5 °C -17.9 °C 34130.9 hPa Calm     94 % 7.62 mm
07:51 -17.4 °C -17.9 °C 34130.9 hPa Calm     94 % 7.62 mm
07:56 -17.4 °C -17.9 °C 34130.9 hPa Calm     94 % 7.62 mm
08:01 -17.4 °C -17.9 °C 34130.9 hPa Calm     94 % 7.62 mm
08:06 -17.4 °C -17.9 °C 34130.9 hPa Calm     94 % 7.62 mm
08:11 -17.4 °C -17.9 °C 34130.9 hPa Calm     94 % 7.62 mm
08:16 -17.4 °C -17.9 °C 34130.9 hPa Calm     94 % 7.62 mm
08:21 -17.4 °C -17.9 °C 34130.9 hPa Calm     94 % 7.62 mm
08:26 -17.4 °C -17.9 °C 34130.9 hPa Calm     94 % 0 mm
08:31 -17.4 °C -17.9 °C 34130.9 hPa Calm     94 % 0 mm
08:41 -17.4 °C -17.9 °C 34130.9 hPa Calm     94 % 0 mm
08:51 -17.4 °C -17.9 °C 34130.9 hPa Calm     94 % 7.62 mm
09:06 -17.4 °C -17.8 °C 34130.9 hPa Calm     95 % 7.62 mm
09:11 -17.4 °C -17.8 °C 34130.9 hPa Calm     95 % 7.62 mm
09:26 -17.3 °C -17.7 °C 34130.9 hPa Calm     95 % 7.62 mm
09:31 -17.3 °C -17.7 °C 34130.9 hPa Calm     95 % 7.62 mm
09:36 -17.3 °C -17.7 °C 34130.9 hPa Calm     95 % 7.62 mm
09:46 -17.3 °C -17.7 °C 34130.9 hPa Calm     95 % 0 mm
09:56 -17.3 °C -17.7 °C 34164.7 hPa Calm     95 % 0 mm
10:01 -17.2 °C -17.6 °C 34164.7 hPa Calm     95 % 0 mm
10:11 -17.2 °C -17.6 °C 34164.7 hPa Calm     95 % 0 mm
10:16 -17.2 °C -17.6 °C 34164.7 hPa Calm     95 % 0 mm
10:21 -17.2 °C -17.6 °C 34164.7 hPa Calm     95 % 0 mm
10:31 -17.2 °C -17.6 °C 34164.7 hPa Calm     95 % 0 mm
10:36 -17.2 °C -17.6 °C 34164.7 hPa Calm     95 % 0 mm
10:41 -17.2 °C -17.6 °C 34164.7 hPa Calm     95 % 0 mm
10:51 -17.2 °C -17.6 °C 34164.7 hPa Calm     95 % 0 mm
11:06 -17.1 °C -17.4 °C 34130.9 hPa Calm     95 % 0 mm
11:11 -17 °C -17.4 °C 34130.9 hPa East 0.5 km/h 6.9 km/h 95 % 0 mm
11:22 -17 °C -17.4 °C 34130.9 hPa East 2.1 km/h 6.4 km/h 95 % 0 mm
11:32 -16.9 °C -17.3 °C 34130.9 hPa East 1.8 km/h 6.9 km/h 95 % 0 mm
11:37 -16.9 °C -17.3 °C 34130.9 hPa East 3.7 km/h 7.6 km/h 95 % 0 mm
11:42 -16.9 °C -17.3 °C 34130.9 hPa East 3.7 km/h 7.6 km/h 95 % 0 mm
11:47 -16.9 °C -17.3 °C 34130.9 hPa East 3.4 km/h 6.4 km/h 95 % 0 mm
11:52 -16.9 °C -17.3 °C 34130.9 hPa ESE 3.1 km/h 6.4 km/h 95 % 0 mm
11:57 -16.8 °C -17.2 °C 34164.7 hPa SSW 1.3 km/h 5.6 km/h 95 % 0 mm
12:02 -16.8 °C -17.2 °C 34164.7 hPa SSW 0.8 km/h 6.9 km/h 95 % 7.62 mm
12:07 -16.8 °C -17.2 °C 34164.7 hPa SSW 2.9 km/h 7.6 km/h 95 % 7.62 mm
12:12 -16.8 °C -17.2 °C 34164.7 hPa SSW 2.9 km/h 7.6 km/h 95 % 7.62 mm
12:17 -16.7 °C -17.1 °C 34164.7 hPa SW 1.6 km/h 6.9 km/h 95 % 7.62 mm
12:27 -16.7 °C -17.2 °C 34198.6 hPa SW 1.8 km/h 7.6 km/h 94 % 7.62 mm
12:32 -16.7 °C -17.2 °C 34198.6 hPa SSW 3.1 km/h 7.6 km/h 94 % 7.62 mm
12:37 -16.6 °C -17.1 °C 34198.6 hPa South 1.6 km/h 7.6 km/h 94 % 12.7 mm
12:47 -16.6 °C -17.1 °C 34130.9 hPa SW 1.8 km/h 6.4 km/h 94 % 12.7 mm
12:52 -16.6 °C -17.1 °C 34130.9 hPa SSW 2.3 km/h 6.4 km/h 94 % 20.32 mm
12:57 -16.6 °C -17.1 °C 34164.7 hPa SSW 2.9 km/h 6.9 km/h 94 % 20.32 mm
13:07 -16.6 °C -17.1 °C 34164.7 hPa SE 1.3 km/h 5.1 km/h 94 % 20.32 mm
13:17 -16.6 °C -17.1 °C 34130.9 hPa WSW 0.3 km/h 2.9 km/h 94 % 12.7 mm
13:22 -16.6 °C -17.1 °C 34130.9 hPa Calm   2.9 km/h 94 % 12.7 mm
13:32 -16.6 °C -17.1 °C 34164.7 hPa Calm     94 % 20.32 mm
13:37 -16.6 °C -17.1 °C 34164.7 hPa Calm   4.2 km/h 93 % 12.7 mm
13:47 -16.6 °C -17.2 °C 34164.7 hPa SSW 1.3 km/h 5.1 km/h 93 % 25.4 mm
13:52 -16.7 °C -17.2 °C 34164.7 hPa SSW 2.3 km/h 5.6 km/h 93 % 20.32 mm
13:57 -16.7 °C -17.2 °C 34164.7 hPa SSW 2.1 km/h 5.6 km/h 93 % 20.32 mm
14:02 -16.7 °C -17.2 °C 34164.7 hPa SSW 2.6 km/h 5.1 km/h 93 % 20.32 mm
14:17 -16.7 °C -17.3 °C 34164.7 hPa SSW 0.5 km/h 4.2 km/h 93 % 25.4 mm
14:22 -16.7 °C -17.3 °C 34164.7 hPa SSW 2.6 km/h 7.6 km/h 93 % 25.4 mm
14:27 -16.7 °C -17.3 °C 34164.7 hPa SW 5.5 km/h 7.6 km/h 93 % 20.32 mm
14:32 -16.7 °C -17.3 °C 34164.7 hPa SW 4.7 km/h 7.6 km/h 93 % 20.32 mm
14:37 -16.9 °C -17.6 °C 34164.7 hPa SSW 3.1 km/h 7.6 km/h 92 % 20.32 mm
14:42 -16.9 °C -17.6 °C 34164.7 hPa SSW 2.9 km/h 6.4 km/h 92 % 20.32 mm
14:47 -16.9 °C -17.6 °C 34164.7 hPa SSW 2.9 km/h 6.4 km/h 92 % 12.7 mm
14:52 -16.9 °C -17.6 °C 34164.7 hPa South 1.6 km/h 6.4 km/h 92 % 12.7 mm
14:57 -16.9 °C -17.6 °C 34130.9 hPa Calm     92 % 12.7 mm
15:02 -17.1 °C -17.7 °C 34130.9 hPa SSW 0.8 km/h 5.6 km/h 92 % 12.7 mm
15:07 -17.1 °C -17.7 °C 34130.9 hPa SW 1 km/h 6.4 km/h 92 % 12.7 mm
15:12 -17.2 °C -17.8 °C 34164.7 hPa West 1 km/h 7.6 km/h 92 % 7.62 mm
15:17 -17.2 °C -17.9 °C 34164.7 hPa West 1.8 km/h 10.3 km/h 92 % 7.62 mm
15:22 -17.3 °C -17.9 °C 34164.7 hPa NNW 4.2 km/h 10.3 km/h 92 % 7.62 mm
15:27 -17.3 °C -17.9 °C 34164.7 hPa NW 5.1 km/h 10.3 km/h 92 % 7.62 mm
15:52 -17.4 °C -18.2 °C 34198.6 hPa West 2.9 km/h 7.6 km/h 91 % 7.62 mm
15:57 -17.6 °C -18.3 °C 34198.6 hPa West 4.2 km/h 7.6 km/h 91 % 7.62 mm
16:07 -17.7 °C -18.5 °C 34198.6 hPa WNW 4.7 km/h 8 km/h 90 % 7.62 mm
16:12 -17.7 °C -18.5 °C 34235.8 hPa WNW 4.7 km/h 7.6 km/h 90 % 7.62 mm
16:23 -17.8 °C -18.5 °C 34235.8 hPa Calm     0 % 7.62 mm
16:33 -17.9 °C -18.7 °C 34235.8 hPa NW 4.2 km/h 7.6 km/h 90 % 0 mm
16:38 -17.9 °C -18.7 °C 34235.8 hPa NW 4.2 km/h 7.6 km/h 90 % 0 mm
16:43 -17.9 °C -18.7 °C 34235.8 hPa NNW 4.3 km/h 5.1 km/h 90 % 0 mm
16:48 -17.9 °C -18.7 °C 34235.8 hPa NNW 2.9 km/h 5.1 km/h 90 % 0 mm
16:53 -17.9 °C -18.7 °C 34235.8 hPa WSW 3.1 km/h 5.1 km/h 90 % 0 mm
16:58 -17.9 °C -18.7 °C 34198.6 hPa WSW 2.1 km/h 5.1 km/h 90 % 0 mm
17:03 -17.9 °C -18.7 °C 34198.6 hPa WSW 0.3 km/h 2.9 km/h 90 % 0 mm
17:08 -18.1 °C -18.9 °C 34198.6 hPa Calm     90 % 0 mm
17:13 -18.1 °C -18.9 °C 34235.8 hPa Calm     90 % 0 mm
17:18 -18.2 °C -18.9 °C 34235.8 hPa Calm     90 % 0 mm
17:23 -18.2 °C -19 °C 34235.8 hPa WSW 0.3 km/h 2.9 km/h 90 % 0 mm
17:28 -18.3 °C -19.1 °C 34235.8 hPa WSW 0.8 km/h 5.6 km/h 90 % 0 mm
17:33 -18.3 °C -19.1 °C 34235.8 hPa West 1.6 km/h 6.4 km/h 90 % 0 mm
17:38 -18.3 °C -19.1 °C 34235.8 hPa NW 1 km/h 6.4 km/h 90 % 0 mm
17:43 -18.3 °C -19.1 °C 34235.8 hPa NNW 0.8 km/h 3.4 km/h 90 % 0 mm
17:48 -18.4 °C -19.2 °C 34235.8 hPa WNW 2.6 km/h 3.4 km/h 90 % 0 mm
17:53 -18.4 °C -19.2 °C 34235.8 hPa WNW 2.6 km/h 5.6 km/h 90 % 0 mm
17:58 -18.4 °C -19.2 °C 34235.8 hPa WNW 2.9 km/h 6.4 km/h 90 % 0 mm
18:03 -18.4 °C -19.2 °C 34235.8 hPa WNW 2.3 km/h 6.4 km/h 90 % 0 mm
18:08 -18.4 °C -19.2 °C 34235.8 hPa NW 1 km/h 5.6 km/h 90 % 0 mm
18:13 -18.4 °C -19.2 °C 34235.8 hPa Calm   5.6 km/h 90 % 0 mm
18:18 -18.6 °C -19.3 °C 34235.8 hPa WNW 1.8 km/h 4.2 km/h 90 % 0 mm
18:23 -18.6 °C -19.4 °C 34235.8 hPa WNW 1.3 km/h 4.2 km/h 90 % 0 mm
18:28 -18.7 °C -19.4 °C 34269.7 hPa WSW 2.9 km/h 7.6 km/h 90 % 0 mm
18:33 -18.7 °C -19.4 °C 34269.7 hPa WSW 4.2 km/h 7.6 km/h 90 % 0 mm
18:38 -18.6 °C -19.4 °C 34269.7 hPa SW 6.3 km/h 12.7 km/h 90 % 0 mm
18:43 -18.6 °C -19.4 °C 34269.7 hPa SW 6.9 km/h 12.7 km/h 90 % 0 mm
18:53 -18.7 °C -19.4 °C 34269.7 hPa WSW 3.4 km/h 6.9 km/h 90 % 0 mm
18:58 -18.7 °C -19.5 °C 34269.7 hPa SSW 2.6 km/h 12.2 km/h 90 % 0 mm
19:03 -18.8 °C -19.6 °C 34269.7 hPa SW 3.1 km/h 12.2 km/h 90 % 0 mm
19:08 -18.9 °C -19.6 °C 34269.7 hPa West 2.1 km/h 9.3 km/h 91 % 0 mm
19:13 -18.9 °C -19.7 °C 34269.7 hPa NNW 1.3 km/h 5.6 km/h 90 % 0 mm
19:18 -19 °C -19.8 °C 34269.7 hPa NNW 1 km/h 5.6 km/h 90 % 0 mm
19:23 -19.1 °C -19.8 °C 34269.7 hPa Calm     90 % 0 mm
19:28 -19.1 °C -19.8 °C 34269.7 hPa Calm     90 % 0 mm
19:39 -19.2 °C -20 °C 0 hPa WNW 1 km/h 6.4 km/h 90 % 0 mm
19:44 -19.3 °C -20.1 °C 34303.6 hPa NNW 1.6 km/h 6.4 km/h 90 % 0 mm
19:49 -19.4 °C -20.2 °C 34303.6 hPa NNE 0.5 km/h 5.1 km/h 91 % 0 mm
19:54 -19.6 °C -20.3 °C 34303.6 hPa Calm   2.9 km/h 90 % 0 mm
19:59 -19.6 °C -20.4 °C 34303.6 hPa Calm     90 % 0 mm
20:04 -19.7 °C -20.4 °C 34303.6 hPa SSW 0.3 km/h 8 km/h 90 % 0 mm
20:09 -19.7 °C -20.5 °C 34303.6 hPa SSW 2.6 km/h 8 km/h 90 % 0 mm
20:14 -19.8 °C -20.6 °C 34303.6 hPa SSW 2.6 km/h 6.4 km/h 90 % 0 mm
20:19 -19.9 °C -20.7 °C 34303.6 hPa SSW 1 km/h 4.2 km/h 90 % 0 mm
20:24 -19.9 °C -20.7 °C 34303.6 hPa SSW 1.6 km/h 4.2 km/h 90 % 0 mm
20:29 -19.9 °C -20.7 °C 34303.6 hPa SSW 0.5 km/h 5.6 km/h 90 % 0 mm
20:34 -20 °C -20.8 °C 34303.6 hPa SW 1.6 km/h 5.6 km/h 90 % 0 mm
20:39 -20.1 °C -20.8 °C 34303.6 hPa SW 1.6 km/h 6.4 km/h 90 % 7.62 mm
20:44 -20.1 °C -20.9 °C 34303.6 hPa SW 0.3 km/h 6.4 km/h 90 % 7.62 mm
20:49 -20.2 °C -21 °C 34303.6 hPa SW 0.8 km/h 4.2 km/h 90 % 7.62 mm
20:54 -20.2 °C -21 °C 34303.6 hPa WSW 1.3 km/h 6.4 km/h 90 % 7.62 mm
20:59 -20.3 °C -21.1 °C 34303.6 hPa West 1.3 km/h 6.4 km/h 90 % 7.62 mm
21:04 -20.4 °C -21.2 °C 34303.6 hPa West 0.8 km/h 3.4 km/h 90 % 7.62 mm
21:09 -20.4 °C -21.2 °C 34303.6 hPa Calm     90 % 7.62 mm
21:14 -17.8 °C -21.2 °C 0 hPa Calm     0 % 7.62 mm
21:19 -20.5 °C -21.3 °C 34303.6 hPa SW 0.8 km/h 3.4 km/h 90 % 7.62 mm
21:24 -20.5 °C -21.3 °C 34303.6 hPa SW 2.1 km/h 5.1 km/h 90 % 7.62 mm
21:29 -20.6 °C -21.3 °C 34303.6 hPa SW 1.8 km/h 5.1 km/h 90 % 7.62 mm
21:34 -20.6 °C -21.4 °C 34303.6 hPa Calm     90 % 7.62 mm
21:39 -20.7 °C -21.4 °C 34303.6 hPa Calm     90 % 0 mm
21:44 -20.7 °C -21.4 °C 34303.6 hPa West 1 km/h 4.2 km/h 90 % 0 mm
21:49 -20.7 °C -21.5 °C 34303.6 hPa West 1.3 km/h 4.2 km/h 90 % 0 mm
21:54 -20.8 °C -21.6 °C 34303.6 hPa Calm   3.4 km/h 90 % 0 mm
21:59 -20.8 °C -21.6 °C 34303.6 hPa SSW 1 km/h 5.1 km/h 90 % 0 mm
22:04 -20.9 °C -21.7 °C 34303.6 hPa SSW 1.3 km/h 5.1 km/h 90 % 0 mm
22:09 -20.9 °C -21.7 °C 34303.6 hPa SSW 0.3 km/h 3.4 km/h 90 % 0 mm
22:14 -20.9 °C -21.7 °C 34303.6 hPa WSW 1 km/h 5.6 km/h 90 % 0 mm
22:19 -21 °C -21.8 °C 34303.6 hPa WSW 1 km/h 5.6 km/h 90 % 0 mm
22:24 -21.1 °C -21.8 °C 34303.6 hPa NW 1.8 km/h 6.4 km/h 90 % 0 mm
22:29 -21.1 °C -21.9 °C 34303.6 hPa WSW 4.2 km/h 6.9 km/h 90 % 0 mm
22:34 -21.1 °C -21.9 °C 34303.6 hPa SW 4.2 km/h 7.6 km/h 90 % 0 mm
22:39 -21.2 °C -21.9 °C 34303.6 hPa SW 2.6 km/h 7.6 km/h 90 % 0 mm
22:44 -21.2 °C -21.9 °C 34303.6 hPa NNW 2.1 km/h 5.1 km/h 90 % 0 mm
22:49 -21.1 °C -21.9 °C 34303.6 hPa NNW 1.8 km/h 5.1 km/h 90 % 0 mm
22:54 -21.1 °C -21.8 °C 34303.6 hPa WSW 1.3 km/h 5.1 km/h 91 % 0 mm
22:59 -21.1 °C -21.8 °C 0 hPa SSE 3.9 km/h 5.6 km/h 90 % 0 mm
23:04 -21 °C -21.8 °C 34303.6 hPa South 2.3 km/h 5.6 km/h 90 % 0 mm
23:09 -17.8 °C -21.8 °C 0 hPa Calm     0 % 0 mm
23:14 -21 °C -21.8 °C 34337.4 hPa SW 6.9 km/h 8.9 km/h 90 % 0 mm
23:19 -21 °C -21.8 °C 34337.4 hPa SW 4.7 km/h 8.9 km/h 90 % 0 mm
23:24 -21 °C -21.8 °C 34337.4 hPa SW 0.8 km/h 5.1 km/h 90 % 0 mm
23:29 -21 °C -21.8 °C 34337.4 hPa Calm     90 % 0 mm
23:34 -21.1 °C -21.8 °C 34337.4 hPa SSE 1 km/h 6.9 km/h 90 % 0 mm
23:39 -21.1 °C -21.8 °C 34337.4 hPa South 2.6 km/h 6.9 km/h 91 % 0 mm
23:44 -21.2 °C -21.8 °C 34371.3 hPa South 1.6 km/h 5.6 km/h 91 % 0 mm
23:49 -21.2 °C -21.9 °C 34371.3 hPa Calm     91 % 0 mm
Vremenska postaja Senovo
Podatki zbrani iz Weather Underground - 2.75 mb

Script developed by  Jim McMurry - jmcmurry@mwt.net Adapted for the template by  Wim van der Kuil - Leuven-Template.eu

Vremenski podatki so objavljeni na:

European Weather Network

WeatherCloud

Weather Underground

AWEKAS

HAMweather, WeatherForYou, PWS Weather

MapView

Geostik

Slovenia weather network

Oprema, ki se uporablja:

Vremenski program
Cumulus

Vremenski server
Asus

Cumulus

Asus